Hourly Data Report for July 02, 2021

WINDSOR A
ONTARIO
Current Station Operator: NAVCAN

42°16'34.000" N
82°57'19.000" W
189.60 m
6139530
71538
YQG

Download Data

Hourly Data (July 2021)
Hourly Data Report for July 2, 2021
TIME
LST
Temp Definition
°C
Dew Point Definition
°C
Rel Hum Definition
%
Precip. Amount Definition
mm

Wind Dir Definition
10's deg

Wind Spd Definition
km/h
Visibility Definition
km
Stn Press Definition
kPa
Hmdx Definition


Wind Chill Definition


Weather Definition


00:00 15.5 11.7 78 0.0 35 18 16.1 99.32     LegendNANA
01:00 15.0 11.6 80 0.0 35 15 16.1 99.30     LegendNANA
02:00 14.8 11.6 81 0.0 33 18 16.1 99.29     LegendNANA
03:00 14.4 11.6 83 0.0 34 15 16.1 99.28     LegendNANA
04:00 14.3 11.7 84 0.0 34 15 16.1 99.25     LegendNANA
05:00 14.3 11.7 84 0.0 33 17 16.1 99.25     LegendNANA
06:00 15.4 12.0 80 0.0 33 21 16.1 99.29     LegendNANA
07:00 16.8 12.5 76 0.0 34 28 16.1 99.30     LegendNANA
08:00 18.1 12.8 71 0.0 35 24 16.1 99.33     LegendNANA
09:00 18.8 13.0 69 0.0 36 21 16.1 99.31     LegendNANA
10:00 20.4 13.3 63 0.0 35 21 16.1 99.33     LegendNANA
11:00 21.4 13.2 59 0.0 34 30 16.1 99.30     LegendNANA
12:00 21.9 12.8 56 0.0 36 26 16.1 99.29 25   LegendNANA
13:00 22.7 12.5 52 0.0 36 24 16.1 99.28 25   LegendNANA
14:00 23.4 12.6 50 0.0 1 22 16.1 99.23 26   LegendNANA
15:00 23.8 12.0 47 0.0 36 24 16.1 99.20 26   LegendNANA
16:00 24.9 12.9 47 0.0 36 22 16.1 99.19 28   LegendNANA
17:00 24.1 11.8 46 0.0 3 26 16.1 99.22 26   LegendNANA
18:00 23.6 11.7 47 0.0 1 22 16.1 99.20 26   LegendNANA
19:00 22.3 11.1 49 0.0 36 22 16.1 99.24     LegendNANA
20:00 21.3 10.3 49 0.0 1 17 16.1 99.27     LegendNANA
21:00 18.8 12.8 68 0.0 3 13 16.1 99.28     LegendNANA
22:00 16.7 12.4 75 0.0 4 9 16.1 99.30     LegendNANA
23:00 17.8 11.0 64 0.0 1 9 16.1 99.27     LegendNANA

Notes on Data Quality.

Legend

  • E = Estimated
  • M = Missing
  • NA = Not Available*
  • [empty] = Indicates an unobserved value
Date modified: